Regional Weather Roundup
Issued by NWS

Home | Current Version | Previous Version | Text Only | Print | Product List | Glossary Off
Versions: 1 2 3 4 5 6 7 8 9 10 11 12 13 14 15 16 17 18 19 20 21 22 23 24 25 26 27 28 29 30 31 32 33 34 35 36 37 38 39 40 41 42 43 44 45 46 47 48 49 50

000
ASUS43 KBIS 230010
RWRND
NORTH DAKOTA REGIONAL WEATHER ROUNDUP
NATIONAL WEATHER SERVICE EASTERN NORTH DAKOTA/GRAND FORKS ND
700 PM CDT TUE MAY 22 2018

  NOTE: "FAIR" INDICATES FEW OR NO CLOUDS BELOW 12,000 FEET WITH NO
  SIGNIFICANT WEATHER AND/OR OBSTRUCTIONS TO VISIBILITY.

NDZ001>003-009>011-017-230100-
...NORTHWEST NORTH DAKOTA...

CITY           SKY/WX    TMP DP  RH WIND       PRES   REMARKS
WILLISTON      CLOUDY    78  48  34 NE6       29.90S
6HR MIN TEMP:  72; 6HR MAX TEMP:  82; 6HR PCP: TRACE;

MINOT          CLOUDY    81  49  32 W5        29.88R
MINOT AFB      CLOUDY    80  47  31 S13       29.86R
6HR MIN TEMP:  80; 6HR MAX TEMP:  86;

$$

NDZ018>021-031>035-040>046-230100-
...SOUTHWEST NORTH DAKOTA...

CITY           SKY/WX    TMP DP  RH WIND       PRES   REMARKS
BISMARCK       FAIR      80  60  50 SE8       29.88F
DICKINSON      FAIR      80  48  32 CALM      29.88S
GARRISON         N/A     82  45  27 E6        29.88S
HETTINGER      CLOUDY    73  56  54 NE15G21   29.92R THUNDER
$$

NDZ004>008-012>016-024-026-027-054-230100-
...NORTHEAST NORTH DAKOTA...

CITY           SKY/WX    TMP DP  RH WIND       PRES   REMARKS
GRAND FORKS    PTSUNNY   81  54  39 SE10      29.92S
GRAND FORKS AF FAIR      79  53  40 SE12      29.93S
DEVILS LAKE    FAIR      78  52  40 SE6       29.93S
$$

NDZ022-023-025-028>030-036>039-047>053-230100-
...SOUTHEAST NORTH DAKOTA...

CITY           SKY/WX    TMP DP  RH WIND       PRES   REMARKS
JAMESTOWN      FAIR      78  55  44 SE9       29.90S
FARGO          FAIR      82  48  30 S7        29.93F
WAHPETON       MOCLDY    81  45  28 SW7       29.94S
$$




USA.gov is the U.S. government's official web portal to all federal, state and local government web resources and services.